Home   Weather   Neenah   Past weeks

Flag for USA Past Weather in Neenah, Wisconsin, USA — Yesterday and Last 2 Weeks

Now
32 °F

Mostly cloudy.


Feels Like: 22 °F
Forecast: 30 / 36 °F
Wind: 14 mph from Southwest

Location: Appleton / Outagamie

Current Time: Dec 5, 2016 at 2:43:57 am

Latest Report: Dec 5, 2016 at 2:15 am


Visibility: 10 mi

Pressure: 29.82 "Hg

Humidity: 100%

Dew Point: 32 °F

Location of NeenahLocation

Past Weather in Neenah — Graph

°F

Neenah Temperature Yesterday

Maximum temperature yesterday: 32 °F (at 10:15 pm)
Minimum temperature yesterday: 28 °F (at 7:45 am)
Average temperature yesterday: 30 °F

High & Low Weather Summary for the Past Weeks

 TemperatureHumidityPressure
High46 °F (Nov 28, 7:45 pm)100% (Nov 22, 10:35 pm)30.34 "Hg (Nov 22, 10:35 pm)
Low18 °F (Nov 21, 6:45 am)38% (Nov 21, 2:45 pm)29.04 "Hg (Nov 28, 10:15 pm)
Average34 °F84%29.96 "Hg
* Reported Nov 20 1:15 am — Dec 5 1:15 am, Neenah, Weather by CustomWeather, © 2016

Note: Actual official high and low records may vary slightly from our data, if they occured in-between our weather recording intervals... More about our weather records

Advertising

Neenah Weather History for the Previous 24 Hours

Scroll right to see more
 ConditionsComfort  
Time TempWeatherWind HumidityBarometerVisibility
1:15 am
Mon, Dec 5
32 °FMostly cloudy.12 mph100%29.80 "Hg10 mi
12:55 am32 °FLow clouds.10 mph100%29.80 "Hg10 mi
12:35 am32 °FLow clouds.10 mph100%29.79 "Hg10 mi
12:15 am32 °FLow clouds.10 mph100%29.79 "Hg10 mi
11:55 pm
Sun, Dec 4
32 °FLow clouds.12 mph100%29.79 "Hg10 mi
11:35 pm32 °FLow clouds.12 mph100%29.79 "Hg10 mi
11:15 pm32 °FMostly cloudy.9 mph100%29.78 "Hg7 mi
10:55 pm32 °FMostly cloudy.9 mph100%29.78 "Hg7 mi
10:35 pm32 °FMostly cloudy.8 mph100%29.78 "Hg7 mi
10:15 pm32 °FIce fog.8 mph100%29.78 "Hg5 mi
9:45 pm30 °FMostly cloudy.8 mph100%29.79 "Hg7 mi
8:45 pm30 °FLow clouds.9 mph100%29.79 "Hg7 mi
7:45 pm30 °FLight snow. Low clouds.8 mph100%29.80 "Hg5 mi
6:45 pm30 °FLight snow. Low clouds.9 mph100%29.81 "Hg3 mi
4:45 pm30 °FLight snow. Low clouds.5 mph100%29.85 "Hg1 mi
3:45 pm30 °FLight snow. Low clouds.5 mph100%29.87 "Hg1 mi
2:45 pm30 °FLight snow. Low clouds.5 mph100%29.89 "Hg1 mi
1:45 pm30 °FLight snow. Low clouds.6 mph100%29.93 "Hg1 mi
12:45 pm30 °FLight snow. Low clouds.8 mph100%29.95 "Hg1 mi
11:45 am30 °FLight snow. Low clouds.8 mph100%30.00 "Hg1 mi
10:45 am30 °FLight snow. Low clouds.9 mph100%30.02 "Hg1 mi
9:45 am30 °FLight snow. Low clouds.8 mph100%30.07 "Hg1 mi
8:45 am30 °FLight snow. Mostly cloudy.6 mph100%30.08 "Hg2 mi
7:45 am28 °FLight snow. Mostly cloudy.5 mph100%30.11 "Hg2 mi
6:45 am30 °FLight snow. Overcast.5 mph80%30.13 "Hg4 mi
5:45 am30 °FMostly cloudy.5 mph80%30.13 "Hg10 mi
4:15 am30 °FPartly cloudy.5 mph75%30.16 "Hg10 mi
3:55 am30 °FMostly cloudy.No wind75%30.16 "Hg10 mi
3:35 am30 °FMostly cloudy.3 mph75%30.16 "Hg10 mi
3:15 am30 °FOvercast.3 mph69%30.17 "Hg10 mi
2:55 am30 °FMostly cloudy.No wind69%30.18 "Hg10 mi
2:35 am30 °FOvercast.No wind69%30.20 "Hg10 mi
2:15 am30 °FOvercast.3 mph69%30.20 "Hg10 mi
Weather by CustomWeather, © 2016

See weather overviewHow to use our weather pages